Regional Weather Roundup
Issued by NWS

Home | Current Version | Previous Version | Graphics & Text | Print | Product List | Glossary On
Versions: 1 2 3 4 5 6 7 8 9 10 11 12 13 14 15 16 17 18 19 20 21 22 23 24 25 26 27 28 29 30 31 32 33 34 35 36 37 38 39 40 41 42 43 44 45 46 47 48 49 50
683
ASUS43 KLOT 280603
RWRIL

ILLINOIS REGIONAL WEATHER ROUNDUP
NATIONAL WEATHER SERVICE CHICAGO/ROMEOVILLE IL
100 AM CDT FRI APR 28 2017

NOTE: "FAIR" INDICATES FEW OR NO CLOUDS BELOW 12,000 FEET WITH NO
SIGNIFICANT WEATHER AND/OR OBSTRUCTIONS TO VISIBILITY.

* THESE STATIONS ARE NOT UNDER NWS QUALITY CONTROL. THEY ALSO MAY NOT
  REPORT WEATHER SUCH AS PRECIPITATION OR FOG.

ILZ001-002-007-009-015-016-024-280700-
NORTHWEST ILLINOIS

CITY           SKY/WX    TMP DP  RH WIND       PRES   REMARKS
MOLINE         PTCLDY    37  34  89 CALM      29.87S FOG
6HR MIN TEMP:  36; 6HR MAX TEMP:  48;

STERLING*      CLEAR     37  36  96 CALM      29.89R
$$

ILZ003-004-008-010-011-017-018-280700-
NORTH CENTRAL ILLINOIS

CITY           SKY/WX    TMP DP  RH WIND       PRES   REMARKS
ROCKFORD       CLOUDY    42  34  73 W9        29.90R
6HR MIN TEMP:  42; 6HR MAX TEMP:  43;

FREEPORT*      MOCLDY    36  32  86 SW5       29.90R WCI  32
ROCHELLE*      CLEAR     36  35  97 SW3       29.89R
DE KALB*       CLEAR     38  36  91 W6        29.88S WCI  34
$$

ILZ005-006-012>014-019>023-280700-
NORTHEAST ILLINOIS

CITY           SKY/WX    TMP DP  RH WIND       PRES   REMARKS
CHICAGO-OHARE  PTCLDY    42  36  79 SW7       29.87R
6HR MIN TEMP:  42; 6HR MAX TEMP:  46;

CHICAGO-MIDWAY PTCLDY    43  38  82 SW5       29.88R
6HR MIN TEMP:  43; 6HR MAX TEMP:  47;

AURORA         MOCLDY    39  36  89 SW3       29.89R
6HR MIN TEMP:  38; 6HR MAX TEMP:  45;

LANSING*       CLEAR     42  41  96 CALM      29.89R
WAUKEGAN       CLOUDY    43  36  76 VRB7      29.85R
6HR MIN TEMP:  43; 6HR MAX TEMP:  44;

DUPAGE AIRPORT PTCLDY    39  37  92 SW5       29.87R
6HR MIN TEMP:  38; 6HR MAX TEMP:  44;

WHEELING       CLOUDY    43  37  79 SW6       29.88R
6HR MIN TEMP:  43; 6HR MAX TEMP:  45;

MORRIS*        CLOUDY    41  39  90 CALM      29.88S
NORTHERLY ISL    N/A     44  36  73 SW3         N/A
$$

LMZ740>746-280700-
SOUTHERN LAKE MICHIGAN

STATION/POSITION SKY/WX   TEMP    WIND        PRES    VSBY  WAVE
                          AIR SEA DIR/SP/G                  HT/PER
                          (F)     (DEG/KT/KT) (MB)    (MI)  (FT/S)
SOUTHERN BUOY              43 41  260/ 16/ 17 1010.6          3/ 5
HARRISON CRIB              47     230/ 11/ 14   N/A
BURNHAM HARBOR             44     180/  3/  6   N/A
CALUMET HARBOR             44     220/  3/  4 1011.4R
BURNS HARBOR               46     190/  6/  8 1012.5R
MICHIGAN CITY              46     180/ 10/ 11   N/A
MICHIGAN CITY 6N           46 47                N/A           2/ 4
ST. JOSEPH                 45 48  280/ 10/ 12 1012.7R         3/ 4
$$

ILZ025>027-034>036-040-047-049-050-058-095>099-280700-
WEST-CENTRAL ILLINOIS

CITY           SKY/WX    TMP DP  RH WIND       PRES   REMARKS
QUINCY         PTCLDY    51  45  79 SE3       29.81F
GALESBURG*     PTCLDY    45  42  89 CALM      29.85S
MACOMB*        CLOUDY    48  45  88 SE6       29.86F
JACKSONVILLE*  CLOUDY    50  47  88 E7        29.83F
PITTSFIELD*    CLOUDY    51  46  83 E6        29.82S
$$

ILZ028>032-037-038-041>044-048-051>054-059>061-280700-
CENTRAL ILLINOIS

CITY           SKY/WX    TMP DP  RH WIND       PRES   REMARKS
BLOOMINGTON    CLOUDY    47  45  93 S7        29.90S
DECATUR        PTCLDY    48  46  93 SE5       29.90F
PEORIA         CLOUDY    49  45  86 S6        29.87F
6HR MIN TEMP:  47; 6HR MAX TEMP:  52;

SPRINGFIELD    CLOUDY    52  47  83 E9        29.85F
6HR MIN TEMP:  50; 6HR MAX TEMP:  55;

TAYLORVILLE    NOT AVBL
$$

ILZ033-039-045-046-055>057-062-063-280700-
EAST-CENTRAL ILLINOIS

CITY           SKY/WX    TMP DP  RH WIND       PRES   REMARKS
CHAMPAIGN      PTCLDY    47  42  83 SE6       29.91S
MATTOON        PTCLDY    44  44 100 SE6       29.91F
$$

ILZ079-100>102-280700-
SOUTHWEST ILLINOIS

CITY           SKY/WX    TMP DP  RH WIND       PRES   REMARKS
BELLEVILLE     CLOUDY    52  52  99 E7        29.85R
CAHOKIA*       PTCLDY    55  49  80 SE7       29.84R
$$

ILZ064>066-069>071-074>076-080>082-084>086-088>090-092>094-280700-
SOUTH-CENTRAL ILLINOIS

CITY           SKY/WX    TMP DP  RH WIND       PRES   REMARKS
CARBONDALE     PTCLDY    52  52 100 SE3       29.86F
6HR MIN TEMP:  50; 6HR MAX TEMP:  57;

CAIRO*         CLOUDY    55  51  86 E3        29.85F
EFFINGHAM*     CLOUDY    48  48 100 CALM      29.92F
MARION         PTCLDY    54  52  94 E3        29.88F
MT. VERNON     MOCLDY    49  48  97 NE5       29.86F
CENTRALIA*     CLOUDY    52  49  91 E8        29.83F
SALEM*         MOCLDY    52  47  84 E6        29.87F
$$

ILZ067-068-072-073-078-083-087-091-280700-
SOUTHEAST ILLINOIS

CITY           SKY/WX    TMP DP  RH WIND       PRES   REMARKS
LAWRENCEVILLE  CLOUDY    48  47  96 NE5       29.93S
FLORA*         MOCLDY    50  48  92 NE5       29.90F
FAIRFIELD*     PTCLDY    50  48  94 CALM      29.89S
HARRISBURG*    CLOUDY    51  50  97 NE3       29.90F
ROBINSON*      MOCLDY    44  44 100 CALM      29.94S
CARMI*         CLOUDY    48  48  99 CALM      29.91R
$$

ABBREVIATIONS USED IN REMARKS
   TC - TEMPERATURE IN CELSIUS
  WCI - WIND CHILL INDEX
   HX - HEAT INDEX
  VSB - VISIBILITY
$$





USA.gov is the U.S. government's official web portal to all federal, state and local government web resources and services.